This is the latest recevied weather packets stored in our database for station/object HK6RM-17. If no packets are shown the sender has not sent any weather packets the latest 1 day(s).
| Time | Temp. | Humidity | Pressure | Rain* | Wind** | Luminosity | Snow |
|---|---|---|---|---|---|---|---|
| 1778076573 | 17.22° C | 82% | 1017 hPa | 0 mm | - | - | - |
| 1778075372 | 17.78° C | 82% | 1017 hPa | 0 mm | - | - | - |
| 1778071767 | 17.78° C | 82% | 1017 hPa | 0 mm | - | - | - |
| 1778071165 | 13.33° C | 94% | 1017 hPa | 0 mm | - | - | - |
| 1778069964 | 14.44° C | 94% | 1017 hPa | 0 mm | - | - | - |
| 1778068762 | 15.56° C | 94% | 1017 hPa | 0 mm | - | - | - |
| 1778067561 | 10.56° C | 92% | 1017 hPa | 0 mm | - | - | - |
| 1778065758 | 11.67° C | 92% | 1017 hPa | 0 mm | - | - | - |
| 1778064557 | 12.22° C | 92% | 1017 hPa | 0 mm | - | - | - |
| 1778063354 | 12.78° C | 92% | 1016 hPa | 0 mm | - | - | - |
| 1778062148 | 11.11° C | 92% | 1016 hPa | 0 mm | - | - | - |
| 1778061547 | 11.11° C | 92% | 1016 hPa | 0 mm | - | - | - |
| 1778060947 | 11.67° C | 92% | 1016 hPa | 0 mm | - | - | - |
| 1778060346 | 12.22° C | 92% | 1016 hPa | 0 mm | - | - | - |
| 1778059745 | 12.22° C | 92% | 1016 hPa | 0 mm | - | - | - |
| 1778059145 | 12.78° C | 92% | 1016 hPa | 0 mm | - | - | - |
| 1778055540 | 15° C | 92% | 1016 hPa | 0 mm | - | - | - |
| 1778054939 | 15.56° C | 91% | 1016 hPa | 0 mm | - | - | - |
| 1778053720 | 16.11° C | 90% | 1016 hPa | 0 mm | - | - | - |
| 1778053118 | 16.11° C | 91% | 1016 hPa | 0 mm | - | - | - |
| 1778052511 | 16.11° C | 91% | 1016 hPa | 0 mm | - | - | - |
| 1778051910 | 16.11° C | 92% | 1016 hPa | 0 mm | - | - | - |
| 1778051309 | 16.11° C | 93% | 1016 hPa | 0 mm | - | - | - |
| 1778049501 | 11.11° C | 85% | 1017 hPa | 0 mm | - | - | - |
| 1778048300 | 11.11° C | 85% | 1017 hPa | 0 mm | - | - | - |
* Rain latest hour (hover to see other rain measurements)
** Current wind speed in m/s (hover to see current wind gust speed)